Location: Gull Harbor
(47.1000°N, 122.9000°W)
Time: 10:57:33
(UTC-07:00)

OTV 5 (USA 277) - Visible Passes

Search period start: 24 September 2018 00:00
Search period end: 04 October 2018 00:00
Orbit: 387 x 394 km, 54.5° (Epoch: 08 September)

Date Brightness Start Highest point End Pass type
(mag) Time Alt. Az. Time Alt. Az. Time Alt. Az.
26 Sep ? 05:48:15 10° SSE 05:49:16 11° SE 05:50:17 10° ESE visible
27 Sep ? 06:25:23 10° SSW 06:28:24 39° SE 06:31:26 10° ENE visible
28 Sep ? 05:30:07 12° S 05:32:14 20° SE 05:34:39 10° E visible
29 Sep ? 06:08:46 13° SW 06:11:32 72° SE 06:14:44 10° ENE visible
30 Sep ? 05:14:52 33° SSE 05:15:16 35° SE 05:18:14 10° ENE visible
01 Oct ? 04:20:53 12° E 04:20:53 12° E 04:21:21 10° E visible
01 Oct ? 05:53:17 29° WSW 05:54:43 67° NNW 05:57:55 10° NE visible
02 Oct ? 04:59:14 42° E 04:59:14 42° E 05:01:33 10° ENE visible
02 Oct ? 06:31:37 10° W 06:34:30 29° NNW 06:37:22 10° NE visible
03 Oct ? 05:37:30 39° NW 05:37:58 43° NNW 05:41:04 10° NE visible
